Location: Fatehalanka
(16.3139°N, 80.8379°E)
Time: 08:46:40
(UTC+00:00)

OceanSat 1 rocket - Pass Details

Date: 14 May 2026
Orbit: 689 x 725 km, 98.6° (Epoch: 6 June)

Event Time Altitude Azimuth Distance (km) Brightness Sun altitude
Exits shadow 14:08:11 13° 166° (SSE) 1,947 6.5 -16.0°
Maximum altitude 14:12:23 87° 79° (E) 693 4.5 -17.0°
Drops below altitude 10° 14:17:05 10° 349° (NNW) 2,143 7.6 -18.0°
Sets 14:19:20 0° 349° (NNW) 3,064 8.5 -18.4°
